Hourly Data Report for October 12, 2016

All times are specified in Local Standard Time (LST). Add 1 hour to adjust for Daylight Saving Time where and when it is observed.

PENTICTON A
BRITISH COLUMBIA

49°27'45.000" N
119°36'08.000" W
344.40 m
1126146
71889
YYF

Download Data

Hourly Data (October 2016)
Hourly Data Report for October 12, 2016
Temp Definition
°C
Dew Point Temp Definition
°C
Rel Hum Definition
%
Wind Dir Definition
10's deg

Wind Spd Definition
km/h
Visibility Definition
km
Stn Press Definition
kPa
Hmdx Definition


Wind Chill Definition


Weather Definition


TIME
00:00 Legend Double Dagger -2.6 -4.8 85 4 3 24.1 98.40   -4 LegendNANA
01:00 Legend Double Dagger -1.1 -3.2 86 36 2 24.1 98.38   -2 Clear
02:00 Legend Double Dagger -2.2 -3.9 88 1 5 24.1 98.36   -4 LegendNANA
03:00 Legend Double Dagger -3.3 -4.6 91 36 2 24.1 98.33   -4 LegendNANA
04:00 Legend Double Dagger -2.2 -3.0 94 36 2 24.1 98.32   -3 Clear
05:00 Legend Double Dagger -3.1 -5.0 87 36 3 24.1 98.30   -4 LegendNANA
06:00 Legend Double Dagger -2.9 -3.7 94 36 3 24.1 98.28   -4 LegendNANA
07:00 Legend Double Dagger -2.9 -3.3 97 36 2 24.1 98.26   -4 Mainly Clear
08:00 Legend Double Dagger 2.4 -0.5 81 36 1 24.1 98.24     LegendNANA
09:00 Legend Double Dagger 5.3 1.1 74 16 3 24.1 98.20     LegendNANA
10:00 Legend Double Dagger 6.4 0.9 68 22 5 24.1 98.13     Clear
11:00 Legend Double Dagger 7.7 -0.5 56 18 7 24.1 97.99     LegendNANA
12:00 Legend Double Dagger 11.1 -1.0 43 17 21 24.1 97.85     LegendNANA
13:00 Legend Double Dagger 12.5 -0.3 41 17 21 24.1 97.72     Mainly Clear
14:00 Legend Double Dagger 13.6 -1.5 35 17 23 24.1 97.64     LegendNANA
15:00 Legend Double Dagger 13.8 -1.3 35 16 23 24.1 97.57     LegendNANA
16:00 Legend Double Dagger 13.4 -0.2 39 17 19 24.1 97.51     Mostly Cloudy
17:00 Legend Double Dagger 12.0 -0.1 43 17 18 24.1 97.47     LegendNANA
18:00 Legend Double Dagger 11.1 -0.7 44 16 18 24.1 97.48     LegendNANA
19:00 Legend Double Dagger 10.7 -1.0 44 20 21 24.1 97.44     Mainly Clear
20:00 Legend Double Dagger 10.3 0.1 49 16 12 24.1 97.43     LegendNANA
21:00 Legend Double Dagger 9.4 0.3 53 13 13 24.1 97.37     LegendNANA
22:00 Legend Double Dagger 9.7 0.1 51 13 14 24.1 97.31     Cloudy
23:00 Legend Double Dagger 10.1 0.2 50 13 17 24.1 97.30     LegendNANA

Notes on Data Quality.

Legend

  • E = Estimated
  • M = Missing
  • NA = Not Available
  • ‡ = Partner data that is not subject to review by the National Climate Archives
Date modified: